Weather Roundup
Issued by NWS Chicago, IL

Home | Current Version | Previous Version | Graphics & Text | Print | Product List | Glossary On
Versions: 1 2 3 4 5 6 7 8 9 10 11 12 13 14 15 16 17 18 19 20 21 22 23 24 25 26 27 28 29 30 31 32 33 34 35 36 37 38 39 40 41 42 43 44 45 46 47 48 49 50
000
NZUS59 KLOT 050021
HRRLOT

CHICAGO AREA WEATHER ROUNDUP
NATIONAL WEATHER SERVICE CHICAGO/ROMEOVILLE IL
700 PM CDT SAT JUL 04 2015

NOTE: "FAIR" INDICATES FEW OR NO CLOUDS BELOW 12,000 FEET WITH NO
SIGNIFICANT WEATHER AND/OR OBSTRUCTIONS TO VISIBILITY.

* THESE STATIONS ARE NOT UNDER NWS QUALITY CONTROL. THEY ALSO MAY NOT
  REPORT WEATHER SUCH AS PRECIPITATION OR FOG.

ILZ005-006-012>014-019>023-050100-
NORTHEAST ILLINOIS

CITY           SKY/WX    TMP DP  RH WIND       PRES   REMARKS
OHARE          MOSUNNY   78  56  46 SW5       29.97F
6HR MIN TEMP:  78; 6HR MAX TEMP:  81;

MIDWAY         SUNNY     79  59  50 E7        29.97F HX  80
6HR MIN TEMP:  79; 6HR MAX TEMP:  84;

AURORA         SUNNY     79  59  50 W3        29.99S HX  80
6HR MIN TEMP:  78; 6HR MAX TEMP:  81;

LANSING*       SUNNY     78  55  44 W3        29.98S
JOLIET*        SUNNY     80  60  50 CALM      29.98S HX  80
WAUKEGAN       SUNNY     71  56  58 SE5       29.98F
6HR MIN TEMP:  71; 6HR MAX TEMP:  77;

DUPAGE AIRPORT SUNNY     77  59  53 SW5       29.98S
6HR MIN TEMP:  77; 6HR MAX TEMP:  80;

WHEELING       SUNNY     77  56  48 E5        29.99S
6HR MIN TEMP:  77; 6HR MAX TEMP:  81;

KANKAKEE*      SUNNY     79  61  54 NW3       29.99S HX  80
MORRIS*        SUNNY     78  60  54 CALM      29.97F
LEWIS AIRPORT* SUNNY     78  54  43 NW5       29.99S
NORTHERLY IS     N/A     69  58  67 N2          N/A
$$

WIZ051-052-058>065-066-070>072-050100-
SOUTHEAST WISCONSIN

CITY           SKY/WX    TMP DP  RH WIND       PRES   REMARKS
MILWAUKEE      PTSUNNY   76  59  55 S9        29.98S
6HR MIN TEMP:  76; 6HR MAX TEMP:  80;

KENOSHA*       SUNNY     76  59  55 S7        29.99S
RACINE*        SUNNY     73  53  49 S9        30.00S
BURLINGTON     SUNNY     75  64  69 CALM      29.98F
WAUKESHA       MOSUNNY   75  61  60 W6        29.99F
WEST BEND      SUNNY     77  59  53 SW3       29.97F
$$

INZ001>003-010>013-019-020-050100-
NORTHWEST INDIANA

CITY           SKY/WX    TMP DP  RH WIND       PRES   REMARKS
GARY*          SUNNY    N/A N/A N/A E8        29.99S
MICHIGAN CITY* NOT AVBL
RENSSELAER*    NOT AVBL
VALPARAISO     SUNNY     77  60  55 W3        29.99F
$$

LMZ740>746-050100-
SOUTHERN LAKE MICHIGAN

STATION/POSITION TIME  SKY/WX   TEMP WIND        PRES    VSBY
                                AIR  DIR/SP/G
                 (UTC)          (F)  (DEG/KT/KT) (MB)    (MI)
HARRISON CRIB    0000            67  100/  5/  7   N/A
BURNHAM HARBOR   0000            69   40/  2/  3   N/A
CALUMET HARBOR   2300            70   70/  5/  7   N/A
BURNS HARBOR     2300            71   70/  9/ 10 1015.9F
MICHIGAN CITY    0000            70   40/ 10/ 10   N/A
$$

ABBREVIATIONS USED IN REMARKS
   TC - TEMPERATURE IN CELSIUS
  WCI - WIND CHILL INDEX
   HX - HEAT INDEX
  VSB - VISIBILITY
$$



USA.gov is the U.S. government's official web portal to all federal, state and local government web resources and services.